The Dalles, WA

12:45 AM PST on December 10, 2019 (GMT -0800)
Columbia Gorge Regional-The Dalles

Weather History for KDLS - June, 2019

Change the Weather History Date:

Tuesday, June 11, 2019

  Actual Average Record
Temperature  
Mean Temperature 76 °F -  
Max Temperature 93 °F 79 °F 95 °F (1986)
Min Temperature 59 °F 52 °F 42 °F (1956)
Cooling Degree Days 11    
Growing Degree Days 26 (Base 50)    
Moisture  
Dew Point 50 °F    
Average Humidity 43    
Maximum Humidity 72    
Minimum Humidity 20    
Precipitation  
Precipitation 0.00 in - - ()
Sea Level Pressure  
Sea Level Pressure 30.13 in    
Wind  
Wind Speed 7 mph (ENE)    
Max Wind Speed 15 mph    
Max Gust Speed 25 mph    
Visibility 10 miles    
Events      
Averages and records for this station are not official NWS values.
T = Trace of Precipitation, MM = Missing Value Source: NWS Daily Summary

Daily Weather History Graph

Daily Weather History Graph

Search for Another Location

Airport or City:

Astronomy

Jun. 11, 2019 Rise Set
Actual Time 5:15 AM PDT 8:53 PM PDT
Civil Twilight 4:37 AM PDT 9:31 PM PDT
Nautical Twilight 3:46 AM PDT 10:22 PM PDT
Astronomical Twilight 2:39 AM PDT 11:30 PM PDT
Moon 2:39 PM PDT (6/11) 2:23 AM PDT (6/11)
Length of Visible Light 16h 54m
Length of Day
15h 38m
Waxing Gibbous, 67% of the Moon is Illuminated
Jun 11
Waxing Gibbous
Jun 17
Full
Jun 25
Last Quarter
Jul 2
New
Jul 9
First Quarter

Hourly Weather History & Observations

Time (PDT) Temp. Dew Point Humidity Pressure Visibility Wind Dir Wind Speed Gust Speed Precip Events Conditions
12:53 AM 73.0 °F 51.1 °F 46% 30.14 in 10.0 mi NW 6.9 mph - N/A   Clear
1:53 AM 68.0 °F 51.1 °F 55% 30.15 in 10.0 mi Variable 5.8 mph - N/A   Clear
2:53 AM 66.0 °F 51.1 °F 59% 30.17 in 10.0 mi NW 8.1 mph - N/A   Clear
3:53 AM 62.1 °F 52.0 °F 70% 30.19 in 10.0 mi West 9.2 mph - N/A   Clear
4:53 AM 59.0 °F 50.0 °F 72% 30.20 in 10.0 mi ESE 3.5 mph - N/A   Clear
5:53 AM 59.0 °F 48.9 °F 69% 30.22 in 10.0 mi ENE 4.6 mph - N/A   Clear
6:53 AM 63.0 °F 53.1 °F 70% 30.23 in 10.0 mi Calm Calm - N/A   Clear
7:53 AM 66.0 °F 53.1 °F 63% 30.24 in 10.0 mi Calm Calm - N/A   Clear
8:53 AM 70.0 °F 53.1 °F 55% 30.23 in 10.0 mi Calm Calm - N/A   Clear
9:53 AM 75.9 °F 54.0 °F 46% 30.22 in 10.0 mi NNE 4.6 mph - N/A   Clear
10:53 AM 80.1 °F 52.0 °F 38% 30.20 in 10.0 mi Calm Calm - N/A   Clear
11:53 AM 87.1 °F 48.9 °F 27% 30.18 in 10.0 mi East 12.7 mph 18.4 mph N/A   Clear
12:53 PM 90.0 °F 48.9 °F 24% 30.15 in 10.0 mi ENE 15.0 mph 25.3 mph N/A   Clear
1:53 PM 91.0 °F 46.9 °F 22% 30.12 in 10.0 mi ENE 15.0 mph 23.0 mph N/A   Clear
2:53 PM 91.9 °F 46.9 °F 21% 30.10 in 10.0 mi East 15.0 mph 21.9 mph N/A   Clear
3:53 PM 93.0 °F 46.9 °F 20% 30.08 in 10.0 mi ENE 13.8 mph 20.7 mph N/A   Clear
4:53 PM 91.9 °F 46.9 °F 21% 30.06 in 10.0 mi East 12.7 mph - N/A   Clear
5:53 PM 91.9 °F 48.0 °F 22% 30.04 in 10.0 mi East 11.5 mph - N/A   Clear
6:53 PM 91.0 °F 48.9 °F 23% 30.03 in 10.0 mi East 8.1 mph - N/A   Clear
7:53 PM 87.1 °F 48.9 °F 27% 30.02 in 10.0 mi East 6.9 mph - N/A   Clear
8:53 PM 81.0 °F 50.0 °F 34% 30.02 in 10.0 mi East 5.8 mph - N/A   Clear
9:53 PM 75.9 °F 52.0 °F 43% 30.04 in 10.0 mi Variable 3.5 mph - N/A   Clear
10:53 PM 70.0 °F 51.1 °F 51% 30.05 in 10.0 mi Calm Calm - N/A   Clear
11:53 PM 68.0 °F 50.0 °F 52% 30.05 in 10.0 mi Calm Calm - N/A   Clear